Hourly Weather Elista

Today, 7 August, Friday

Time Temperature Precipitation Wind Pressure Humidity
00:00 +28°C° 0 mm 3 mps 743 mmHg 40%
01:00 +27°C° 0 mm 3 mps 743 mmHg 43%
02:00 +27°C° 0 mm 3 mps 743 mmHg 45%
03:00 +27°C° 0 mm 4 mps 743 mmHg 43%
04:00 +27°C° 0 mm 4 mps 743 mmHg 45%
05:00 +27°C° 0 mm 4 mps 743 mmHg 48%
06:00 +27°C° 0 mm 4 mps 743 mmHg 51%
07:00 +29°C° 0 mm 4 mps 743 mmHg 45%
08:00 +32°C° 0 mm 4 mps 744 mmHg 38%
09:00 +35°C° 0 mm 5 mps 744 mmHg 31%
10:00 +36°C° 0 mm 4 mps 744 mmHg 28%
11:00 +37°C° 0 mm 4 mps 744 mmHg 24%
12:00 +37°C° 0 mm 4 mps 744 mmHg 21%
13:00 +38°C° 0 mm 4 mps 743 mmHg 21%
14:00 +38°C° 0 mm 4 mps 743 mmHg 21%
15:00 +38°C° 0 mm 4 mps 743 mmHg 20%
16:00 +37°C° 0 mm 4 mps 742 mmHg 21%
17:00 +37°C° 0 mm 4 mps 742 mmHg 23%
18:00 +36°C° 0 mm 4 mps 742 mmHg 24%
19:00 +35°C° 0 mm 3 mps 742 mmHg 28%
20:00 +33°C° 0 mm 3 mps 742 mmHg 32%
21:00 +30°C° 0 mm 3 mps 742 mmHg 36%
22:00 +30°C° 0 mm 3 mps 742 mmHg 37%
23:00 +30°C° 0 mm 3 mps 742 mmHg 38%

Tomorrow, 8 August, Saturday

Time Temperature Precipitation Wind Pressure Humidity
00:00 +29°C° 0 mm 4 mps 742 mmHg 39%
01:00 +28°C° 0 mm 4 mps 742 mmHg 43%
02:00 +28°C° 0 mm 4 mps 742 mmHg 47%
03:00 +27°C° 0 mm 4 mps 742 mmHg 51%
04:00 +26°C° 0 mm 4 mps 741 mmHg 54%
05:00 +26°C° 0 mm 4 mps 741 mmHg 57%
06:00 +26°C° 0 mm 4 mps 741 mmHg 59%
07:00 +28°C° 0 mm 4 mps 741 mmHg 54%
08:00 +29°C° 0 mm 5 mps 742 mmHg 49%
09:00 +32°C° 0 mm 5 mps 742 mmHg 44%
10:00 +33°C° 0 mm 5 mps 742 mmHg 39%
11:00 +34°C° 0 mm 5 mps 741 mmHg 35%
12:00 +35°C° 0 mm 4 mps 741 mmHg 31%
13:00 +35°C° 0 mm 4 mps 741 mmHg 28%
14:00 +36°C° 0 mm 5 mps 741 mmHg 26%
15:00 +36°C° 0 mm 5 mps 740 mmHg 23%
16:00 +35°C° 0 mm 5 mps 740 mmHg 24%
17:00 +35°C° 0 mm 5 mps 740 mmHg 25%
18:00 +34°C° 0 mm 5 mps 740 mmHg 26%
19:00 +33°C° 0 mm 6 mps 740 mmHg 30%
20:00 +30°C° 0 mm 6 mps 740 mmHg 34%
21:00 +28°C° 0 mm 6 mps 740 mmHg 39%
22:00 +28°C° 0 mm 6 mps 740 mmHg 40%
23:00 +27°C° 0 mm 6 mps 740 mmHg 40%

Day after tomorrow, 9 August, Sunday

Time Temperature Precipitation Wind Pressure Humidity
00:00 +26°C° 0 mm 6 mps 740 mmHg 41%
01:00 +24°C° 0 mm 6 mps 740 mmHg 42%
02:00 +23°C° 0 mm 6 mps 740 mmHg 44%
03:00 +22°C° 0 mm 6 mps 739 mmHg 45%
04:00 +22°C° 0 mm 6 mps 740 mmHg 46%
05:00 +22°C° 0 mm 6 mps 740 mmHg 48%
06:00 +21°C° 0 mm 6 mps 740 mmHg 49%
07:00 +23°C° 0 mm 6 mps 740 mmHg 46%
08:00 +24°C° 0 mm 6 mps 740 mmHg 42%
09:00 +26°C° 0 mm 6 mps 741 mmHg 39%
10:00 +27°C° 0 mm 6 mps 741 mmHg 35%
11:00 +28°C° 0 mm 6 mps 741 mmHg 30%
12:00 +30°C° 0 mm 5 mps 741 mmHg 26%
13:00 +30°C° 0 mm 5 mps 740 mmHg 24%
14:00 +32°C° 0 mm 5 mps 740 mmHg 21%
15:00 +32°C° 0 mm 5 mps 740 mmHg 19%
16:00 +32°C° 0 mm 4 mps 740 mmHg 20%
17:00 +30°C° 0 mm 4 mps 740 mmHg 21%
18:00 +30°C° 0 mm 4 mps 740 mmHg 23%
19:00 +28°C° 0 mm 4 mps 740 mmHg 26%
20:00 +26°C° 0 mm 4 mps 740 mmHg 29%
21:00 +25°C° 0 mm 3 mps 740 mmHg 33%
22:00 +23°C° 0 mm 4 mps 740 mmHg 35%
23:00 +23°C° 0 mm 4 mps 740 mmHg 37%

10 August, Monday

Time Temperature Precipitation Wind Pressure Humidity
00:00 +22°C° 0 mm 4 mps 741 mmHg 39%
01:00 +21°C° 0 mm 4 mps 740 mmHg 40%
02:00 +21°C° 0 mm 4 mps 740 mmHg 42%
03:00 +20°C° 0 mm 4 mps 740 mmHg 43%
04:00 +20°C° 0 mm 4 mps 740 mmHg 43%
05:00 +20°C° 0 mm 4 mps 740 mmHg 43%
06:00 +20°C° 0 mm 5 mps 741 mmHg 43%
07:00 +22°C° 0 mm 5 mps 741 mmHg 38%
08:00 +26°C° 0 mm 5 mps 741 mmHg 34%
09:00 +28°C° 0 mm 5 mps 741 mmHg 29%
10:00 +29°C° 0 mm 4 mps 741 mmHg 28%
11:00 +30°C° 0 mm 3 mps 741 mmHg 26%
12:00 +30°C° 0 mm 2 mps 741 mmHg 25%
13:00 +31°C° 0 mm 2 mps 741 mmHg 23%
14:00 +32°C° 0 mm 2 mps 740 mmHg 22%
15:00 +32°C° 0 mm 2 mps 740 mmHg 21%
16:00 +32°C° 0 mm 2 mps 740 mmHg 21%
17:00 +32°C° 0 mm 2 mps 740 mmHg 21%
18:00 +33°C° 0 mm 3 mps 740 mmHg 21%
19:00 +30°C° 0 mm 3 mps 740 mmHg 23%
20:00 +28°C° 0 mm 3 mps 740 mmHg 26%
21:00 +26°C° 0 mm 3 mps 740 mmHg 28%
22:00 +25°C° 0 mm 3 mps 740 mmHg 30%
23:00 +25°C° 0 mm 3 mps 740 mmHg 31%

11 August, Tuesday

Time Temperature Precipitation Wind Pressure Humidity
00:00 +24°C° 0 mm 3 mps 740 mmHg 32%
01:00 +22°C° 0 mm 3 mps 740 mmHg 34%
02:00 +22°C° 0 mm 3 mps 740 mmHg 35%
03:00 +21°C° 0 mm 3 mps 740 mmHg 37%
04:00 +21°C° 0 mm 3 mps 740 mmHg 37%
05:00 +21°C° 0 mm 3 mps 741 mmHg 37%
06:00 +21°C° 0 mm 3 mps 741 mmHg 37%
07:00 +25°C° 0 mm 2 mps 741 mmHg 34%
08:00 +27°C° 0 mm 2 mps 741 mmHg 31%
09:00 +29°C° 0 mm 1 mps 741 mmHg 28%
10:00 +30°C° 0 mm 1 mps 741 mmHg 27%
11:00 +31°C° 0 mm 1 mps 741 mmHg 26%
12:00 +32°C° 0 mm 1 mps 741 mmHg 24%
13:00 +33°C° 0 mm 1 mps 741 mmHg 23%
14:00 +33°C° 0 mm 1 mps 740 mmHg 23%
15:00 +33°C° 0 mm 1 mps 740 mmHg 22%
16:00 +32°C° 0 mm 1 mps 740 mmHg 23%
17:00 +32°C° 0 mm 1 mps 740 mmHg 24%
18:00 +31°C° 0 mm 1 mps 740 mmHg 26%
19:00 +30°C° 0 mm 3 mps 740 mmHg 28%
20:00 +29°C° 0 mm 4 mps 741 mmHg 30%
21:00 +28°C° 0 mm 5 mps 741 mmHg 32%
22:00 +27°C° 0 mm 5 mps 741 mmHg 35%
23:00 +26°C° 0 mm 4 mps 741 mmHg 38%

12 August, Wednesday

Time Temperature Precipitation Wind Pressure Humidity
00:00 +25°C° 0 mm 4 mps 741 mmHg 41%
01:00 +23°C° 0 mm 4 mps 741 mmHg 43%
02:00 +22°C° 0 mm 4 mps 741 mmHg 44%
03:00 +21°C° 0 mm 4 mps 741 mmHg 45%
04:00 +21°C° 0 mm 3 mps 741 mmHg 44%
05:00 +21°C° 0 mm 3 mps 741 mmHg 44%
06:00 +21°C° 0 mm 3 mps 741 mmHg 43%
07:00 +24°C° 0 mm 3 mps 741 mmHg 38%
08:00 +27°C° 0 mm 3 mps 741 mmHg 34%
09:00 +29°C° 0 mm 3 mps 742 mmHg 29%
10:00 +30°C° 0 mm 3 mps 741 mmHg 28%
11:00 +31°C° 0 mm 2 mps 741 mmHg 26%
12:00 +32°C° 0 mm 1 mps 741 mmHg 25%
13:00 +32°C° 0 mm 1 mps 741 mmHg 24%
14:00 +33°C° 0 mm 1 mps 741 mmHg 23%
15:00 +31°C° 0 mm 0 mps 740 mmHg 22%
16:00 +33°C° 0 mm 1 mps 740 mmHg 22%
17:00 +32°C° 0 mm 1 mps 740 mmHg 23%
18:00 +32°C° 0 mm 1 mps 740 mmHg 24%
19:00 +31°C° 0 mm 2 mps 740 mmHg 25%
20:00 +30°C° 0 mm 2 mps 740 mmHg 27%
21:00 +28°C° 0 mm 2 mps 740 mmHg 29%
22:00 +28°C° 0 mm 2 mps 740 mmHg 30%
23:00 +27°C° 0 mm 2 mps 740 mmHg 32%
Show more